This demonstration page uses our WeatherBlox Daily Observations layout. Learn more.

Left ArrowRight Arrow

39.01783, -85.05884

Hourly Observations for December 15, 2016

Temp ( °F °C ) Dew Point ( °F °C ) Humidity (%) Winds ( mph kmh ) Pressure ( in mb ) Visibility ( mi km ) Precip ( " mm )
12:52 am 00:52 Clear 15 -9.4 1 -17.2 53 53 WNW 18 30 30.28 1026 10 16 N/A
1:52 am 01:52 Clear 13 -10.6 -1 -18.3 54 54 WNW 20 31 30.30 1026 10 16 N/A
2:52 am 02:52 Mostly Clear 12 -11.1 -3 -19.4 51 51 WNW 18 30 30.33 1027 10 16 N/A
3:52 am 03:52 Mostly Clear 11 -11.7 -2 -18.9 55 55 WNW 15 24 30.35 1028 10 16 N/A
4:52 am 04:52 Clear 9 -12.8 -2 -18.9 61 61 W 9 15 30.35 1028 10 16 N/A
5:52 am 05:52 Clear 8 -13.3 -5 -20.6 55 55 WNW 14 22 30.38 1029 10 16 N/A
6:52 am 06:52 Clear 8 -13.3 -5 -20.6 55 55 WNW 13 20 30.40 1029 10 16 N/A
7:52 am 07:52 Sunny 7 -13.9 -4 -20 60 60 W 8 13 30.42 1030 10 16 N/A
8:52 am 08:52 Sunny 8 -13.3 -4 -20 57 57 WNW 14 22 30.44 1031 10 16 N/A
9:52 am 09:52 Sunny 10 -12.2 -4 -20 53 53 WNW 17 28 30.47 1032 10 16 N/A
10:52 am 10:52 Mostly Sunny 13 -10.6 -4 -20 46 46 NW 13 20 30.49 1032 10 16 N/A
11:52 am 11:52 Mostly Sunny 14 -10 -4 -20 44 44 WNW 12 19 30.48 1032 10 16 N/A
12:52 pm 12:52 Partly Cloudy 16 -8.9 -5 -20.6 38 38 WNW 9 15 30.46 1032 10 16 N/A
1:52 pm 13:52 Partly Cloudy 17 -8.3 -5 -20.6 37 37 WNW 14 22 30.46 1031 10 16 N/A
2:52 pm 14:52 Partly Cloudy 18 -7.8 -6 -21.1 34 34 NW 10 17 30.47 1032 10 16 N/A
3:52 pm 15:52 Partly Cloudy 17 -8.3 -10 -23.3 29 29 WNW 14 22 30.48 1032 10 16 N/A
4:52 pm 16:52 Mostly Cloudy 14 -10 -6 -21.1 40 40 W 10 17 30.49 1033 10 16 N/A
5:52 pm 17:52 Mostly Clear 12 -11.1 -6 -21.1 44 44 WNW 7 11 30.49 1033 10 16 N/A
6:52 pm 18:52 Partly Cloudy 12 -11.1 -4 -20 48 48 NNW 3 6 30.48 1032 10 16 N/A
7:52 pm 19:52 Mostly Cloudy 11 -11.7 -2 -18.9 55 55 N 3 6 30.49 1032 10 16 N/A
8:52 pm 20:52 Mostly Cloudy 11 -11.7 -3 -19.4 53 53 NNE 6 9 30.47 1032 10 16 N/A
9:52 pm 21:52 Cloudy 12 -11.1 -6 -21.1 44 44 N N/A 30.46 1032 10 16 N/A
10:52 pm 22:52 Cloudy 10 -12.2 2 -16.7 69 69 N N/A 30.45 1031 10 16 N/A
11:52 pm 23:52 Cloudy 13 -10.6 -6 -21.1 42 42 NNE 5 7 30.45 1031 10 16 N/A

Powered by AerisWeather